When you browse on this site, cookies collect data to enhance your experience and personalize the content and advertising you see.
Visit our Privacy Policy to learn more. By continuing to use the site, you agree to this use of cookies and data.
  • In Lithuania
  • List of Countries
  • For 7 days
  • Water Temperature
  • Weather Map
  • Weather Widgets
  • user-avatar
    Login

    Hourly Weather Salzburg

    Today, 27 January, Monday

    Time Temperature Precipitation Wind Pressure Humidity
    00:00 -3°C° 0 mm 1 mps 624 mmHg 92%
    01:00 -3°C° 0 mm 1 mps 624 mmHg 91%
    02:00 -4°C° 0 mm 1 mps 623 mmHg 91%
    03:00 -4°C° 0 mm 1 mps 623 mmHg 91%
    04:00 -6°C° 0 mm 1 mps 622 mmHg 90%
    05:00 -6°C° 0.1 mm 1 mps 623 mmHg 90%
    06:00 -6°C° 0.1 mm 1 mps 623 mmHg 90%
    07:00 -6°C° 0.1 mm 1 mps 623 mmHg 90%
    08:00 -4°C° 0 mm 1 mps 623 mmHg 90%
    09:00 -3°C° 0 mm 1 mps 623 mmHg 90%
    10:00 -2°C° 0 mm 1 mps 624 mmHg 90%
    11:00 -1°C° 0 mm 1 mps 623 mmHg 90%
    12:00 0°C° 0 mm 1 mps 623 mmHg 90%
    13:00 +1°C° 0 mm 1 mps 623 mmHg 91%
    14:00 0°C° 0 mm 1 mps 622 mmHg 91%
    15:00 0°C° 0 mm 1 mps 622 mmHg 91%
    16:00 -1°C° 0 mm 1 mps 621 mmHg 91%
    17:00 -3°C° 0 mm 2 mps 621 mmHg 89%
    18:00 -4°C° 0 mm 2 mps 620 mmHg 87%
    19:00 -6°C° 0 mm 3 mps 620 mmHg 85%
    20:00 -6°C° 0 mm 3 mps 620 mmHg 85%
    21:00 -6°C° 0 mm 3 mps 619 mmHg 84%
    22:00 -6°C° 0 mm 3 mps 619 mmHg 84%
    23:00 -5°C° 0 mm 2 mps 618 mmHg 84%

    Tomorrow, 28 January, Tuesday

    Time Temperature Precipitation Wind Pressure Humidity
    00:00 -5°C° 0 mm 2 mps 618 mmHg 84%
    01:00 -5°C° 0 mm 2 mps 617 mmHg 84%
    02:00 -5°C° 0 mm 2 mps 617 mmHg 84%
    03:00 -5°C° 0 mm 2 mps 616 mmHg 84%
    04:00 -5°C° 0 mm 2 mps 615 mmHg 84%
    05:00 -5°C° 0 mm 2 mps 615 mmHg 84%
    06:00 -6°C° 0 mm 2 mps 615 mmHg 84%
    07:00 -6°C° 0 mm 2 mps 614 mmHg 85%
    08:00 -5°C° 0 mm 2 mps 614 mmHg 85%
    09:00 -2°C° 0 mm 1 mps 614 mmHg 85%
    10:00 -1°C° 0 mm 1 mps 615 mmHg 85%
    11:00 -1°C° 0.3 mm 1 mps 614 mmHg 88%
    12:00 -1°C° 0.3 mm 1 mps 614 mmHg 91%
    13:00 -1°C° 0.3 mm 1 mps 614 mmHg 94%
    14:00 -4°C° 2.1 mm 2 mps 614 mmHg 93%
    15:00 -5°C° 2.1 mm 2 mps 613 mmHg 92%
    16:00 -6°C° 2.1 mm 2 mps 613 mmHg 91%
    17:00 -7°C° 0.4 mm 2 mps 614 mmHg 91%
    18:00 -8°C° 0.4 mm 2 mps 614 mmHg 90%
    19:00 -8°C° 0.4 mm 1 mps 614 mmHg 89%
    20:00 -8°C° 0.1 mm 1 mps 614 mmHg 89%
    21:00 -9°C° 0.1 mm 1 mps 614 mmHg 89%
    22:00 -9°C° 0.1 mm 1 mps 614 mmHg 89%
    23:00 -10°C° 0.1 mm 2 mps 614 mmHg 88%

    Day after tomorrow, 29 January, Wednesday

    Time Temperature Precipitation Wind Pressure Humidity
    00:00 -10°C° 0.1 mm 2 mps 614 mmHg 87%
    01:00 -9°C° 0.1 mm 2 mps 614 mmHg 85%
    02:00 -9°C° 0.1 mm 2 mps 614 mmHg 84%
    03:00 -9°C° 0.1 mm 2 mps 614 mmHg 84%
    04:00 -9°C° 0.1 mm 2 mps 614 mmHg 83%
    05:00 -9°C° 0.6 mm 2 mps 614 mmHg 87%
    06:00 -9°C° 0.6 mm 2 mps 615 mmHg 91%
    07:00 -8°C° 0.6 mm 1 mps 615 mmHg 96%
    08:00 -8°C° 0.6 mm 2 mps 616 mmHg 93%
    09:00 -8°C° 0.6 mm 2 mps 616 mmHg 91%
    10:00 -7°C° 0.6 mm 2 mps 617 mmHg 89%
    11:00 -7°C° 0.2 mm 2 mps 617 mmHg 87%
    12:00 -7°C° 0.2 mm 2 mps 617 mmHg 85%
    13:00 -6°C° 0.2 mm 2 mps 618 mmHg 83%
    14:00 -6°C° 0.4 mm 2 mps 618 mmHg 86%
    15:00 -7°C° 0.4 mm 2 mps 618 mmHg 89%
    16:00 -6°C° 0.4 mm 1 mps 618 mmHg 92%
    17:00 -6°C° 0.7 mm 1 mps 618 mmHg 93%
    18:00 -7°C° 0.7 mm 1 mps 619 mmHg 95%
    19:00 -7°C° 0.7 mm 1 mps 619 mmHg 96%
    20:00 -7°C° 1.1 mm 1 mps 620 mmHg 96%
    21:00 -7°C° 1.1 mm 1 mps 620 mmHg 96%
    22:00 -8°C° 1.1 mm 2 mps 620 mmHg 96%
    23:00 -8°C° 1.4 mm 2 mps 621 mmHg 96%

    30 January, Thursday

    Time Temperature Precipitation Wind Pressure Humidity
    00:00 -9°C° 1.4 mm 2 mps 621 mmHg 96%
    01:00 -9°C° 1.4 mm 2 mps 622 mmHg 96%
    02:00 -9°C° 0.4 mm 2 mps 622 mmHg 96%
    03:00 -10°C° 0.4 mm 2 mps 622 mmHg 96%
    04:00 -9°C° 0.4 mm 1 mps 623 mmHg 96%
    05:00 -9°C° 0.2 mm 1 mps 623 mmHg 95%
    06:00 -9°C° 0.2 mm 1 mps 623 mmHg 95%
    07:00 -9°C° 0.2 mm 1 mps 623 mmHg 95%
    08:00 -8°C° 0.1 mm 1 mps 624 mmHg 93%
    09:00 -7°C° 0.1 mm 1 mps 624 mmHg 90%
    10:00 -6°C° 0.1 mm 1 mps 624 mmHg 88%
    11:00 -4°C° 0 mm 1 mps 624 mmHg 87%
    12:00 -3°C° 0 mm 1 mps 624 mmHg 86%
    13:00 -2°C° 0 mm 1 mps 624 mmHg 85%
    14:00 -2°C° 0 mm 1 mps 624 mmHg 84%
    15:00 -2°C° 0 mm 1 mps 623 mmHg 84%
    16:00 -2°C° 0 mm 1 mps 623 mmHg 83%
    17:00 -3°C° 0 mm 1 mps 623 mmHg 80%
    18:00 -6°C° 0 mm 2 mps 623 mmHg 76%
    19:00 -7°C° 0 mm 2 mps 622 mmHg 73%
    20:00 -7°C° 0 mm 2 mps 622 mmHg 71%
    21:00 -7°C° 0 mm 2 mps 622 mmHg 70%
    22:00 -7°C° 0 mm 2 mps 622 mmHg 68%
    23:00 -7°C° 0 mm 2 mps 622 mmHg 65%

    31 January, Friday

    Time Temperature Precipitation Wind Pressure Humidity
    00:00 -7°C° 0 mm 2 mps 621 mmHg 63%
    01:00 -7°C° 0 mm 2 mps 621 mmHg 60%
    02:00 -6°C° 0 mm 2 mps 621 mmHg 63%
    03:00 -6°C° 0 mm 2 mps 621 mmHg 65%
    04:00 -5°C° 0 mm 2 mps 621 mmHg 68%
    05:00 -4°C° 0.7 mm 2 mps 621 mmHg 76%
    06:00 -4°C° 0.7 mm 2 mps 621 mmHg 84%
    07:00 -4°C° 0.7 mm 2 mps 621 mmHg 93%
    08:00 -3°C° 1.3 mm 2 mps 622 mmHg 95%
    09:00 -2°C° 1.3 mm 2 mps 622 mmHg 97%
    10:00 -1°C° 1.3 mm 2 mps 622 mmHg 99%
    11:00 -1°C° 0.4 mm 2 mps 622 mmHg 99%
    12:00 +1°C° 0.4 mm 1 mps 622 mmHg 99%
    13:00 +1°C° 0.4 mm 1 mps 622 mmHg 99%
    14:00 +1°C° 0.1 mm 1 mps 622 mmHg 99%
    15:00 +1°C° 0.1 mm 1 mps 622 mmHg 99%
    16:00 +1°C° 0.1 mm 1 mps 623 mmHg 99%
    17:00 +1°C° 0.1 mm 1 mps 623 mmHg 99%
    18:00 +1°C° 0.1 mm 1 mps 623 mmHg 98%
    19:00 +1°C° 0.1 mm 1 mps 624 mmHg 97%
    20:00 +1°C° 0.1 mm 1 mps 624 mmHg 97%
    21:00 +1°C° 0.1 mm 1 mps 624 mmHg 97%
    22:00 +1°C° 0.1 mm 1 mps 625 mmHg 97%
    23:00 +1°C° 0 mm 1 mps 625 mmHg 96%

    1 February, Saturday

    Time Temperature Precipitation Wind Pressure Humidity
    00:00 +1°C° 0 mm 1 mps 625 mmHg 95%
    01:00 0°C° 0 mm 1 mps 625 mmHg 94%
    02:00 0°C° 0 mm 1 mps 624 mmHg 94%
    03:00 0°C° 0 mm 1 mps 624 mmHg 93%
    04:00 0°C° 0 mm 1 mps 624 mmHg 93%
    05:00 0°C° 0 mm 1 mps 624 mmHg 92%
    06:00 0°C° 0 mm 1 mps 624 mmHg 92%
    07:00 0°C° 0 mm 1 mps 624 mmHg 92%
    08:00 0°C° 0 mm 1 mps 624 mmHg 94%
    09:00 +1°C° 0 mm 1 mps 625 mmHg 96%
    10:00 +1°C° 0 mm 1 mps 625 mmHg 98%
    11:00 +1°C° 0 mm 1 mps 625 mmHg 98%
    12:00 +1°C° 0 mm 1 mps 625 mmHg 98%
    13:00 +2°C° 0 mm 1 mps 625 mmHg 98%
    14:00 +2°C° 0 mm 1 mps 624 mmHg 98%
    15:00 +1°C° 0 mm 1 mps 624 mmHg 98%
    16:00 +1°C° 0 mm 1 mps 624 mmHg 98%
    17:00 +1°C° 0 mm 1 mps 624 mmHg 97%
    18:00 +1°C° 0 mm 1 mps 624 mmHg 95%
    19:00 0°C° 0 mm 1 mps 624 mmHg 93%
    20:00 0°C° 0.4 mm 1 mps 625 mmHg 94%
    21:00 -1°C° 0.4 mm 2 mps 625 mmHg 95%
    22:00 -1°C° 0.4 mm 2 mps 625 mmHg 96%
    23:00 -1°C° 0.6 mm 2 mps 625 mmHg 96%
    Show more